Fairbanks, AK

3:47 PM AKST on December 16, 2017 (GMT -0900)
Fairbanks International

Weather History for PAFA - April, 2013

Change the Weather History Date:

Saturday, April 6, 2013

  Actual Average Record
Temperature  
Mean Temperature 9 °F 26 °F  
Max Temperature 20 °F 38 °F 61 °F (1997)
Min Temperature -3 °F 13 °F -24 °F (1927)
Degree Days  
Heating Degree Days 56 40  
Month to date heating degree days 277 249  
Since 1 July heating degree days 13034 12299  
Cooling Degree Days 0 0  
Month to date cooling degree days 0 0  
Year to date cooling degree days 0 0  
Moisture  
Dew Point -9 °F    
Average Humidity 44    
Maximum Humidity 59    
Minimum Humidity 27    
Precipitation  
Precipitation T in 0.00 in 0.27 in (1984)
Month to date precipitation T 0.04  
Year to date precipitation 1.53 1.29  
Snow  
Snow T in 0.10 in 3.10 in (1984)
Month to date snowfall T 0.8  
Since 1 July snowfall 56.7 62.0  
Snow Depth 21.00 in    
Sea Level Pressure  
Sea Level Pressure 29.67 in    
Wind  
Wind Speed 9 mph (NNE)    
Max Wind Speed 15 mph    
Max Gust Speed -    
Visibility 10 miles    
Events      
T = Trace of Precipitation, MM = Missing Value Source: NWS Daily Summary

Daily Weather History Graph

Daily Weather History Graph

Search for Another Location

Airport or City:

Trip Planner

Search our weather history database for the weather conditions in past years. The results will help you decide how hot, cold, wet, or windy it might be!

Date:

Astronomy

Apr. 06, 2013 Rise Set
Actual Time 6:48 AM AKDT 9:01 PM AKDT
Civil Twilight 5:55 AM AKDT 9:54 PM AKDT
Nautical Twilight 4:43 AM AKDT 11:07 PM AKDT
Astronomical Twilight 2:43 AM AKDT 1:22 AM AKDT
Moon 5:51 AM AKDT (4/6) 4:35 PM AKDT (4/6)
Length of Visible Light 15h 59m
Length of Day
14h 13m
Waning Crescent, 14% of the Moon is Illuminated
Apr 6
Waning Crescent
Apr 10
New
Apr 18
First Quarter
Apr 25
Full
May 2
Last Quarter

Hourly Weather History & Observations

Time (AKDT) Temp. Windchill Dew Point Humidity Pressure Visibility Wind Dir Wind Speed Gust Speed Precip Events Conditions
12:53 AM 3.0 °F -14.1 °F -11.0 °F 52% 29.76 in 10.0 mi North 12.7 mph - N/A   Partly Cloudy
1:53 AM 3.0 °F -13.3 °F -11.9 °F 50% 29.75 in 10.0 mi North 11.5 mph - N/A   Partly Cloudy
2:53 AM 3.0 °F -12.5 °F -11.9 °F 50% 29.73 in 10.0 mi North 10.4 mph - N/A   Mostly Cloudy
3:53 AM 1.9 °F -13.8 °F -11.9 °F 52% 29.72 in 10.0 mi North 10.4 mph - N/A   Scattered Clouds
4:53 AM 1.9 °F -12.9 °F -13.0 °F 50% 29.71 in 10.0 mi North 9.2 mph - N/A   Scattered Clouds
5:53 AM 1.9 °F -12.9 °F -13.0 °F 50% 29.69 in 10.0 mi North 9.2 mph - N/A   Scattered Clouds
6:53 AM -0.9 °F -12.7 °F -14.1 °F 54% 29.68 in 10.0 mi NE 5.8 mph - N/A   Scattered Clouds
7:53 AM -2.9 °F -15.0 °F -14.1 °F 59% 29.68 in 10.0 mi NE 5.8 mph - N/A   Partly Cloudy
8:53 AM 1.9 °F -9.2 °F -11.0 °F 55% 29.67 in 10.0 mi NE 5.8 mph - N/A   Scattered Clouds
9:53 AM 6.1 °F -2.8 °F -9.9 °F 48% 29.66 in 10.0 mi East 4.6 mph - N/A   Scattered Clouds
10:53 AM 9.0 °F 0.6 °F -9.0 °F 44% 29.66 in 10.0 mi ESE 4.6 mph - N/A   Scattered Clouds
11:53 AM 12.0 °F - -7.1 °F 42% 29.65 in 10.0 mi Calm Calm - N/A   Scattered Clouds
12:53 PM 15.1 °F - -7.1 °F 37% 29.64 in 10.0 mi Calm Calm - N/A   Mostly Cloudy
1:53 PM 16.0 °F - -6.0 °F 38% 29.63 in 10.0 mi Calm Calm - N/A   Mostly Cloudy
2:53 PM 19.9 °F 13.4 °F -4.0 °F 35% 29.63 in 10.0 mi South 4.6 mph - N/A   Scattered Clouds
3:53 PM 15.1 °F 3.3 °F -4.0 °F 43% 29.62 in 10.0 mi SSW 9.2 mph - N/A   Mostly Cloudy
4:53 PM 16.0 °F 5.3 °F -5.1 °F 39% 29.62 in 10.0 mi SSW 8.1 mph - N/A   Mostly Cloudy
5:53 PM 15.1 °F 7.7 °F -4.0 °F 43% 29.64 in 10.0 mi SSW 4.6 mph - N/A   Mostly Cloudy
6:53 PM 16.0 °F 1.1 °F -5.1 °F 39% 29.64 in 10.0 mi North 15.0 mph - N/A   Mostly Cloudy
7:53 PM 14.0 °F -0.8 °F -6.0 °F 41% 29.65 in 10.0 mi North 13.8 mph - N/A   Mostly Cloudy
8:53 PM 10.9 °F -4.7 °F -7.1 °F 44% 29.67 in 10.0 mi North 13.8 mph - N/A   Mostly Cloudy
9:53 PM 10.0 °F -4.5 °F -8.0 °F 44% 29.67 in 10.0 mi North 11.5 mph - N/A   Mostly Cloudy
10:53 PM 10.0 °F -4.5 °F -8.0 °F 44% 29.67 in 10.0 mi North 11.5 mph - N/A   Overcast
11:53 PM 10.0 °F -0.9 °F -7.1 °F 46% 29.67 in 10.0 mi North 6.9 mph - N/A   Overcast